When you browse on this site, cookies collect data to enhance your experience and personalize the content and advertising you see.
Visit our Privacy Policy to learn more. By continuing to use the site, you agree to this use of cookies and data.
  • In Schweiz
  • Länderverzeichnis
  • Für 7 Tage
  • Wassertemperatur
  • Satellitenkarten
  • Wetterkarte
  • Widgets
  • user-avatar
    Anmelden

    Stündliche Wetter Karakol

    Heute, 21 Januar, Montag

    Zeit Temperatur Niederschläge Wind Luftdruck Luftfeuchtigkeit
    00:00 -5°C° 0 mm 4 m/S 601 mmHg 54%
    01:00 -4°C° 0 mm 4 m/S 602 mmHg 55%
    02:00 -4°C° 0 mm 4 m/S 602 mmHg 56%
    03:00 -4°C° 0 mm 3 m/S 602 mmHg 58%
    04:00 -5°C° 0 mm 3 m/S 602 mmHg 60%
    05:00 -5°C° 0 mm 3 m/S 602 mmHg 63%
    06:00 -4°C° 0 mm 2 m/S 603 mmHg 65%
    07:00 -5°C° 0 mm 2 m/S 603 mmHg 67%
    08:00 -5°C° 0 mm 2 m/S 603 mmHg 68%
    09:00 -4°C° 0 mm 2 m/S 603 mmHg 71%
    10:00 -4°C° 0 mm 2 m/S 604 mmHg 75%
    11:00 -1°C° 0 mm 1 m/S 604 mmHg 72%
    12:00 -1°C° 0 mm 1 m/S 604 mmHg 76%
    13:00 -3°C° 0 mm 2 m/S 604 mmHg 80%
    14:00 -3°C° 0 mm 2 m/S 604 mmHg 84%
    15:00 -4°C° 0.1 mm 2 m/S 604 mmHg 84%
    16:00 -5°C° 0.1 mm 2 m/S 604 mmHg 83%
    17:00 -6°C° 0.1 mm 2 m/S 604 mmHg 83%
    18:00 -6°C° 0 mm 2 m/S 604 mmHg 81%
    19:00 -7°C° 0 mm 2 m/S 605 mmHg 79%
    20:00 -8°C° 0 mm 2 m/S 605 mmHg 77%
    21:00 -9°C° 0 mm 3 m/S 605 mmHg 75%
    22:00 -9°C° 0 mm 3 m/S 604 mmHg 73%
    23:00 -10°C° 0 mm 3 m/S 604 mmHg 71%

    Morgen, 22 Januar, Dienstag

    Zeit Temperatur Niederschläge Wind Luftdruck Luftfeuchtigkeit
    00:00 -10°C° 0 mm 3 m/S 604 mmHg 69%
    01:00 -10°C° 0 mm 3 m/S 604 mmHg 67%
    02:00 -10°C° 0 mm 3 m/S 604 mmHg 65%
    03:00 -10°C° 0 mm 3 m/S 603 mmHg 63%
    04:00 -10°C° 0 mm 3 m/S 603 mmHg 61%
    05:00 -10°C° 0 mm 3 m/S 603 mmHg 59%
    06:00 -10°C° 0 mm 3 m/S 603 mmHg 57%
    07:00 -10°C° 0 mm 3 m/S 603 mmHg 55%
    08:00 -9°C° 0 mm 3 m/S 603 mmHg 54%
    09:00 -7°C° 0 mm 2 m/S 603 mmHg 57%
    10:00 -5°C° 0 mm 2 m/S 603 mmHg 61%
    11:00 -4°C° 0 mm 2 m/S 603 mmHg 65%
    12:00 -4°C° 0 mm 2 m/S 603 mmHg 67%
    13:00 -3°C° 0 mm 2 m/S 602 mmHg 70%
    14:00 -3°C° 0 mm 2 m/S 601 mmHg 72%
    15:00 -4°C° 0 mm 2 m/S 601 mmHg 69%
    16:00 -6°C° 0 mm 2 m/S 601 mmHg 67%
    17:00 -7°C° 0 mm 2 m/S 600 mmHg 64%
    18:00 -7°C° 0 mm 2 m/S 600 mmHg 62%
    19:00 -7°C° 0 mm 2 m/S 601 mmHg 59%
    20:00 -7°C° 0 mm 2 m/S 601 mmHg 56%
    21:00 -7°C° 0 mm 2 m/S 601 mmHg 57%
    22:00 -7°C° 0 mm 2 m/S 601 mmHg 57%
    23:00 -7°C° 0 mm 2 m/S 601 mmHg 57%

    übermorgen, 23 Januar, Mittwoch

    Zeit Temperatur Niederschläge Wind Luftdruck Luftfeuchtigkeit
    00:00 -7°C° 0 mm 2 m/S 601 mmHg 57%
    01:00 -7°C° 0 mm 2 m/S 601 mmHg 57%
    02:00 -7°C° 0 mm 1 m/S 600 mmHg 57%
    03:00 -7°C° 0 mm 1 m/S 600 mmHg 57%
    04:00 -7°C° 0 mm 1 m/S 600 mmHg 57%
    05:00 -8°C° 0 mm 1 m/S 600 mmHg 57%
    06:00 -8°C° 0 mm 2 m/S 601 mmHg 58%
    07:00 -8°C° 0 mm 2 m/S 601 mmHg 58%
    08:00 -8°C° 0 mm 2 m/S 601 mmHg 58%
    09:00 -6°C° 0 mm 1 m/S 602 mmHg 61%
    10:00 -4°C° 0 mm 1 m/S 602 mmHg 64%
    11:00 -3°C° 0 mm 1 m/S 602 mmHg 67%
    12:00 -2°C° 0 mm 1 m/S 602 mmHg 70%
    13:00 -2°C° 0 mm 1 m/S 602 mmHg 72%
    14:00 -2°C° 0 mm 1 m/S 602 mmHg 75%
    15:00 -4°C° 0 mm 1 m/S 601 mmHg 74%
    16:00 -6°C° 0 mm 1 m/S 601 mmHg 73%
    17:00 -8°C° 0 mm 2 m/S 601 mmHg 72%
    18:00 -9°C° 0 mm 2 m/S 602 mmHg 70%
    19:00 -9°C° 0 mm 2 m/S 602 mmHg 68%
    20:00 -9°C° 0 mm 2 m/S 602 mmHg 66%
    21:00 -9°C° 0 mm 2 m/S 602 mmHg 64%
    22:00 -9°C° 0 mm 2 m/S 602 mmHg 63%
    23:00 -10°C° 0 mm 2 m/S 603 mmHg 61%

    24 Januar, Donnerstag

    Zeit Temperatur Niederschläge Wind Luftdruck Luftfeuchtigkeit
    00:00 -10°C° 0 mm 2 m/S 603 mmHg 60%
    01:00 -10°C° 0 mm 2 m/S 603 mmHg 58%
    02:00 -10°C° 0 mm 2 m/S 603 mmHg 57%
    03:00 -10°C° 0 mm 2 m/S 603 mmHg 56%
    04:00 -10°C° 0 mm 2 m/S 603 mmHg 55%
    05:00 -10°C° 0 mm 2 m/S 603 mmHg 54%
    06:00 -10°C° 0 mm 2 m/S 604 mmHg 55%
    07:00 -10°C° 0 mm 2 m/S 604 mmHg 56%
    08:00 -10°C° 0 mm 2 m/S 605 mmHg 56%
    09:00 -8°C° 0 mm 2 m/S 605 mmHg 59%
    10:00 -7°C° 0 mm 2 m/S 606 mmHg 63%
    11:00 -4°C° 0 mm 1 m/S 606 mmHg 66%
    12:00 -4°C° 0 mm 1 m/S 606 mmHg 69%
    13:00 -4°C° 0 mm 1 m/S 606 mmHg 72%
    14:00 -4°C° 0 mm 1 m/S 606 mmHg 75%
    15:00 -7°C° 0 mm 2 m/S 606 mmHg 75%
    16:00 -8°C° 0 mm 2 m/S 606 mmHg 75%
    17:00 -9°C° 0 mm 2 m/S 606 mmHg 75%
    18:00 -10°C° 0 mm 2 m/S 606 mmHg 73%
    19:00 -10°C° 0 mm 2 m/S 607 mmHg 71%
    20:00 -10°C° 0 mm 2 m/S 607 mmHg 69%
    21:00 -10°C° 0 mm 2 m/S 607 mmHg 68%
    22:00 -10°C° 0 mm 2 m/S 607 mmHg 67%
    23:00 -10°C° 0 mm 2 m/S 607 mmHg 66%

    25 Januar, Freitag

    Zeit Temperatur Niederschläge Wind Luftdruck Luftfeuchtigkeit
    00:00 -12°C° 0 mm 2 m/S 607 mmHg 66%
    01:00 -12°C° 0 mm 2 m/S 607 mmHg 65%
    02:00 -12°C° 0 mm 2 m/S 607 mmHg 65%
    03:00 -12°C° 0 mm 2 m/S 607 mmHg 65%
    04:00 -12°C° 0 mm 2 m/S 607 mmHg 66%
    05:00 -12°C° 0 mm 2 m/S 607 mmHg 67%
    06:00 -12°C° 0 mm 2 m/S 608 mmHg 69%
    07:00 -12°C° 0 mm 2 m/S 609 mmHg 71%
    08:00 -12°C° 0 mm 2 m/S 609 mmHg 73%
    09:00 -10°C° 0 mm 2 m/S 609 mmHg 74%
    10:00 -9°C° 0 mm 2 m/S 609 mmHg 74%
    11:00 -8°C° 0 mm 2 m/S 609 mmHg 75%
    12:00 -8°C° 0 mm 2 m/S 609 mmHg 76%
    13:00 -8°C° 0 mm 2 m/S 609 mmHg 77%
    14:00 -8°C° 0 mm 2 m/S 608 mmHg 79%
    15:00 -9°C° 0 mm 2 m/S 608 mmHg 76%
    16:00 -12°C° 0 mm 2 m/S 608 mmHg 73%
    17:00 -13°C° 0 mm 2 m/S 608 mmHg 70%
    18:00 -14°C° 0 mm 3 m/S 608 mmHg 66%
    19:00 -14°C° 0 mm 3 m/S 608 mmHg 62%
    20:00 -15°C° 0 mm 3 m/S 608 mmHg 58%
    21:00 -15°C° 0 mm 3 m/S 608 mmHg 55%
    22:00 -15°C° 0 mm 3 m/S 608 mmHg 53%
    23:00 -15°C° 0 mm 3 m/S 608 mmHg 50%

    26 Januar, Samstag

    Zeit Temperatur Niederschläge Wind Luftdruck Luftfeuchtigkeit
    00:00 -15°C° 0 mm 3 m/S 608 mmHg 48%
    01:00 -15°C° 0 mm 3 m/S 607 mmHg 45%
    02:00 -15°C° 0 mm 3 m/S 607 mmHg 43%
    03:00 -15°C° 0 mm 3 m/S 607 mmHg 41%
    04:00 -15°C° 0 mm 3 m/S 607 mmHg 38%
    05:00 -15°C° 0 mm 3 m/S 607 mmHg 36%
    06:00 -15°C° 0 mm 3 m/S 607 mmHg 36%
    07:00 -14°C° 0 mm 3 m/S 607 mmHg 36%
    08:00 -14°C° 0 mm 3 m/S 607 mmHg 36%
    09:00 -10°C° 0 mm 2 m/S 608 mmHg 41%
    10:00 -8°C° 0 mm 2 m/S 608 mmHg 45%
    11:00 -4°C° 0 mm 1 m/S 608 mmHg 49%
    12:00 -4°C° 0 mm 1 m/S 607 mmHg 51%
    13:00 -4°C° 0 mm 1 m/S 607 mmHg 53%
    14:00 -4°C° 0 mm 1 m/S 606 mmHg 55%
    15:00 -6°C° 0 mm 1 m/S 606 mmHg 50%
    16:00 -9°C° 0 mm 2 m/S 606 mmHg 46%
    17:00 -12°C° 0 mm 3 m/S 606 mmHg 41%
    18:00 -12°C° 0 mm 3 m/S 606 mmHg 39%
    19:00 -13°C° 0 mm 3 m/S 606 mmHg 36%
    20:00 -13°C° 0 mm 3 m/S 606 mmHg 34%
    21:00 -13°C° 0 mm 3 m/S 606 mmHg 33%
    22:00 -13°C° 0 mm 3 m/S 606 mmHg 32%
    23:00 -13°C° 0 mm 3 m/S 606 mmHg 31%
    Mehr zeigen